Waarnemingen

Advertentie
Mijn weer
Cagliari/Elmas, Italië (16560): temperatuur & dauwpunt: 15.05.2018 19:00:00 - 21.05.2018 19:00:00 (CEST)Cagliari/Elmas, Italië (16560): windsnelheid: 15.05.2018 19:00:00 - 21.05.2018 19:00:00 (CEST)Cagliari/Elmas, Italië (16560): windrichting: 15.05.2018 19:00:00 - 21.05.2018 19:00:00 (CEST)Cagliari/Elmas, Italië (16560): luchtdruk: 15.05.2018 19:00:00 - 21.05.2018 19:00:00 (CEST)Cagliari/Elmas, Italië (16560): zicht: 15.05.2018 19:00:00 - 21.05.2018 19:00:00 (CEST)Cagliari/Elmas, Italië (16560): neerslag: 15.05.2018 19:00:00 - 21.05.2018 19:00:00 (CEST)
Datum & Tijd tt [°C] td [°C] ff [km/u] ff [kn] dd ppp [hPa] vv [km] rr [mm]
21.05.2018 19:00:00 - - - - - - - -
21.05.2018 18:00:00 18,0 16,0 9 5 ZZO - 10 -
21.05.2018 17:00:00 17,6 15,5 11 6 ZZO 1011,5 10 0,0
21.05.2018 16:00:00 18,0 16,0 13 7 ZO - 10 -
21.05.2018 15:00:00 17,0 15,0 11 6 ZZO - 8 -
21.05.2018 14:00:00 17,4 15,1 11 6 ZZO 1012,2 10 -
21.05.2018 13:00:00 17,0 15,0 13 7 ZZO - 10 -
21.05.2018 12:00:00 17,0 16,0 11 6 ZZO - 10 -
21.05.2018 11:00:00 16,8 15,4 8 4 Z 1012,4 10 0,0
21.05.2018 10:00:00 17,0 16,0 2 1 - - 10 -
21.05.2018 09:00:00 16,0 16,0 5 3 O - 8 -
21.05.2018 08:00:00 15,9 15,2 4 2 - 1012,9 6 -
21.05.2018 07:00:00 16,0 15,0 4 2 - - 3,5 -
21.05.2018 06:00:00 16,0 15,0 5 3 WNW - 10 -
21.05.2018 05:00:00 16,1 14,7 9 5 WNW 1011,9 10 0,0
21.05.2018 04:00:00 16,0 15,0 8 4 NNW - 10 -
21.05.2018 03:00:00 16,0 14,0 5 3 NNW - 10 -
21.05.2018 02:00:00 16,2 14,6 8 4 N 1012,9 10 -
21.05.2018 01:00:00 17,0 15,0 13 7 NW - 10 -
21.05.2018 00:00:00 17,0 14,0 11 6 NW - 10 -
20.05.2018 23:00:00 17,9 15,9 8 4 NNW 1013,0 10 0,0
20.05.2018 22:00:00 18,0 16,0 4 2 - - 10 -
20.05.2018 21:00:00 19,0 16,0 8 4 ZZO - 10 -
20.05.2018 20:00:00 19,2 14,7 9 5 Z 1012,4 10 -
20.05.2018 19:00:00 20,0 14,0 5 3 ZO - 10 -
20.05.2018 18:00:00 20,0 16,0 11 6 Z - 10 -
20.05.2018 17:00:00 20,5 14,7 13 7 Z 1012,1 10 0,0
20.05.2018 16:00:00 21,0 16,0 16 9 Z - 10 -
20.05.2018 15:00:00 22,0 16,0 16 9 Z - 10 -
20.05.2018 14:00:00 22,2 15,0 15 8 Z 1013,0 10 -
20.05.2018 13:00:00 23,0 13,0 15 8 Z - 10 -
20.05.2018 12:00:00 23,0 12,0 11 6 ZZW - 10 -
20.05.2018 11:00:00 21,7 11,7 8 4 ZZW 1013,2 10 0,0
20.05.2018 10:00:00 19,0 13,0 9 5 NW - 10 -
20.05.2018 09:00:00 17,0 14,0 11 6 NW - 10 -
20.05.2018 08:00:00 14,8 13,2 8 4 NW 1013,7 10 -
20.05.2018 07:00:00 13,0 12,0 5 3 NNW - 10 -
20.05.2018 06:00:00 13,0 11,0 5 3 N - 10 -
20.05.2018 05:00:00 13,8 12,7 11 6 WNW 1013,9 10 0,0
20.05.2018 04:00:00 14,0 12,0 9 5 NNW - 10 -
20.05.2018 03:00:00 14,0 12,0 5 3 N - 10 -
20.05.2018 02:00:00 14,5 12,4 9 5 NNW 1015,0 10 -
20.05.2018 01:00:00 17,0 13,0 8 4 NW - 10 -
20.05.2018 00:00:00 17,0 14,0 4 2 OZO - 10 -
19.05.2018 23:00:00 17,3 13,2 4 2 ZZO 1014,9 10 0,0
19.05.2018 22:00:00 18,0 14,0 8 4 ZZO - 10 -
19.05.2018 21:00:00 18,0 14,0 9 5 ZZO - 10 -
19.05.2018 20:00:00 18,1 13,6 11 6 ZZO 1014,0 10 -
19.05.2018 19:00:00 19,0 13,0 13 7 ZZO - 10 -
19.05.2018 18:00:00 19,0 14,0 16 9 ZZO - 10 -
19.05.2018 17:00:00 19,5 13,2 21 11 ZZO 1014,4 10 0,0
19.05.2018 16:00:00 21,0 13,0 16 9 ZZO - 10 -
19.05.2018 15:00:00 20,0 13,0 18 10 ZZO - 10 -
19.05.2018 14:00:00 21,2 13,8 16 9 ZZO 1014,8 10 -
19.05.2018 13:00:00 21,0 14,0 15 8 Z - 10 -
19.05.2018 12:00:00 21,0 13,0 11 6 Z - 10 -
19.05.2018 11:00:00 20,6 13,4 9 5 ZW 1015,2 10 0,0
19.05.2018 10:00:00 19,0 14,0 5 3 WNW - 10 -
19.05.2018 09:00:00 17,0 14,0 9 5 NW - 10 -
19.05.2018 08:00:00 15,1 13,0 8 4 N 1015,1 10 -
19.05.2018 07:00:00 13,0 12,0 9 5 NNW - 10 -
19.05.2018 06:00:00 13,0 12,0 9 5 NNW - 10 -
19.05.2018 05:00:00 14,2 13,1 9 5 NW 1014,6 10 0,0
19.05.2018 04:00:00 14,0 13,0 9 5 NNW - 10 -
19.05.2018 03:00:00 16,0 14,0 8 4 NW - 10 -
19.05.2018 02:00:00 16,0 14,2 11 6 NW 1015,3 10 -
19.05.2018 01:00:00 17,0 15,0 4 2 - - 10 -
19.05.2018 00:00:00 17,0 14,0 5 3 ZZO - 10 -
18.05.2018 23:00:00 17,3 14,4 5 3 Z 1015,7 10 0,0
18.05.2018 22:00:00 18,0 15,0 8 4 Z - 10 -
18.05.2018 21:00:00 18,0 15,0 13 7 Z - 10 -
18.05.2018 20:00:00 18,0 14,5 16 9 Z 1014,8 10 -
18.05.2018 19:00:00 18,0 15,0 15 8 Z - 10 -
18.05.2018 18:00:00 19,0 15,0 18 10 Z - 10 -
18.05.2018 17:00:00 19,3 14,3 22 12 Z 1014,1 10 0,0
18.05.2018 16:00:00 20,0 15,0 22 12 Z - 10 -
18.05.2018 15:00:00 21,0 13,0 21 11 ZZO - 10 -
18.05.2018 14:00:00 21,5 13,4 16 9 Z 1014,9 10 -
18.05.2018 13:00:00 21,0 13,0 15 8 Z - 10 -
18.05.2018 12:00:00 21,0 13,0 13 7 ZZW - 10 -
18.05.2018 11:00:00 19,5 12,7 11 6 ZW 1015,2 10 0,0
18.05.2018 10:00:00 18,0 13,0 5 3 ZW - 10 -
18.05.2018 09:00:00 16,0 13,0 4 2 - - 10 -
18.05.2018 08:00:00 13,9 12,7 5 3 NW 1015,0 9 -
18.05.2018 07:00:00 12,0 11,0 9 5 NNW - 8 -
18.05.2018 06:00:00 12,0 11,0 8 4 NNW - 10 -
18.05.2018 05:00:00 12,1 11,3 5 3 NW 1014,2 10 0,0
18.05.2018 04:00:00 13,0 12,0 5 3 WNW - 10 -
18.05.2018 03:00:00 13,0 12,0 8 4 NNW - 10 -
18.05.2018 02:00:00 14,5 12,3 5 3 N 1014,7 10 -
18.05.2018 01:00:00 15,0 13,0 8 4 NO - 10 -
18.05.2018 00:00:00 16,0 13,0 8 4 ZZO - 10 -
17.05.2018 23:00:00 16,6 12,3 2 1 ZZO 1015,3 10 0,0
17.05.2018 22:00:00 17,0 13,0 8 4 Z - 10 -
17.05.2018 21:00:00 17,0 13,0 11 6 ZZO - 10 -
17.05.2018 20:00:00 17,7 12,2 16 9 ZO 1014,1 10 -
17.05.2018 19:00:00 19,0 12,0 15 8 Z - 10 -
17.05.2018 18:00:00 19,0 12,0 15 8 ZZO - 10 -
17.05.2018 17:00:00 18,9 12,7 16 9 Z 1013,8 10 0,0
17.05.2018 16:00:00 21,0 13,0 18 10 ZZO - 10 -
17.05.2018 15:00:00 21,0 13,0 15 8 Z - 10 -
17.05.2018 14:00:00 22,2 10,6 13 7 W 1014,2 10 -
17.05.2018 13:00:00 21,0 11,0 11 6 W - 10 -
17.05.2018 12:00:00 21,0 12,0 13 7 W - 10 -
17.05.2018 11:00:00 18,1 11,9 13 7 NNW 1015,2 10 0,0
17.05.2018 10:00:00 17,0 12,0 15 8 NNW - 10 -
17.05.2018 09:00:00 15,0 12,0 8 4 NW - 10 -
17.05.2018 08:00:00 12,4 10,8 13 7 NNW 1015,7 10 -
17.05.2018 07:00:00 11,0 10,0 13 7 NNW - 10 -
17.05.2018 06:00:00 11,0 10,0 11 6 NNW - 10 -
17.05.2018 05:00:00 10,8 10,0 13 7 NW 1015,2 10 0,0
17.05.2018 04:00:00 11,0 10,0 13 7 NW - 10 -
17.05.2018 03:00:00 11,0 10,0 9 5 N - 10 -
17.05.2018 02:00:00 11,9 10,7 13 7 NW 1015,8 10 -
17.05.2018 01:00:00 - - - - - - - -
17.05.2018 00:00:00 13,0 11,0 9 5 NNW - 10 -
16.05.2018 23:00:00 14,2 11,5 13 7 N 1015,8 10 0,0
16.05.2018 22:00:00 15,0 11,0 8 4 NNW - 10 -
16.05.2018 21:00:00 17,0 11,0 13 7 N - 10 -
16.05.2018 20:00:00 18,4 11,5 18 10 NNW 1015,0 10 -
16.05.2018 19:00:00 20,0 12,0 22 12 N - 10 -
16.05.2018 18:00:00 21,0 11,0 22 12 NNW - 10 -
16.05.2018 17:00:00 20,6 10,8 22 12 N 1014,6 10 0,0
16.05.2018 16:00:00 21,0 11,0 16 9 NW - 10 -
16.05.2018 15:00:00 - - - - - - - -
16.05.2018 14:00:00 20,1 11,4 18 10 NW 1016,0 10 -
16.05.2018 13:00:00 19,0 12,0 15 8 WNW - 10 -
16.05.2018 12:00:00 17,0 11,0 2 1 - - 10 -
16.05.2018 11:00:00 17,2 11,8 5 3 ZZW 1017,3 10 0,0
16.05.2018 10:00:00 17,0 13,0 4 2 - - 10 -
16.05.2018 09:00:00 16,0 12,0 5 3 N - 10 -
16.05.2018 08:00:00 15,4 12,1 4 2 N 1016,5 10 -
16.05.2018 07:00:00 15,0 12,0 4 2 NNW - 10 -
16.05.2018 06:00:00 15,0 12,0 5 3 N - 10 -
16.05.2018 05:00:00 15,0 13,0 5 3 NW - 10 -
16.05.2018 04:00:00 14,0 12,0 5 3 NNW - 10 -
16.05.2018 03:00:00 14,0 13,0 8 4 N - 10 -
16.05.2018 02:00:00 15,6 11,4 9 5 WNW 1016,6 10 -
16.05.2018 01:00:00 14,0 11,0 4 2 - - 10 -
16.05.2018 00:00:00 13,0 11,0 4 2 - - 10 -
15.05.2018 23:00:00 13,6 11,3 11 6 N 1017,0 10 0,0
15.05.2018 22:00:00 14,0 12,0 9 5 N - 10 -
15.05.2018 21:00:00 14,0 12,0 16 9 NNW - 10 -
15.05.2018 20:00:00 - - - - - - - -
15.05.2018 19:00:00 - - - - - - - -

tt = temperatuur
td = dauwpunt
ff = windsnelheid
dd = windrichting
ppp = luchtdruk
vv = zicht
rr = neerslag

Weerstations in de omgeving